When you browse on this site, cookies collect data to enhance your experience and personalize the content and advertising you see.
Visit our Privacy Policy to learn more. By continuing to use the site, you agree to this use of cookies and data.
  • In United Kingdom
  • List of Countries
  • For 7 days
  • Water Temperature
  • Satellite Maps
  • Weather Map
  • Weather Widgets
  • user-avatar
    Login

    Hourly Weather Herzliya

    Today, 26 May, Sunday

    Time Temperature Precipitation Wind Pressure Humidity
    00:00 +22°C° 0 mm 3 mps 758 mmHg 64%
    01:00 +22°C° 0 mm 3 mps 757 mmHg 65%
    02:00 +22°C° 0 mm 3 mps 757 mmHg 66%
    03:00 +21°C° 0 mm 2 mps 757 mmHg 67%
    04:00 +21°C° 0 mm 2 mps 758 mmHg 68%
    05:00 +21°C° 0 mm 2 mps 758 mmHg 69%
    06:00 +23°C° 0 mm 2 mps 758 mmHg 62%
    07:00 +24°C° 0 mm 2 mps 758 mmHg 55%
    08:00 +25°C° 0 mm 2 mps 758 mmHg 49%
    09:00 +27°C° 0 mm 3 mps 758 mmHg 46%
    10:00 +28°C° 0 mm 3 mps 758 mmHg 43%
    11:00 +29°C° 0 mm 4 mps 758 mmHg 40%
    12:00 +29°C° 0 mm 5 mps 758 mmHg 42%
    13:00 +29°C° 0 mm 5 mps 757 mmHg 43%
    14:00 +29°C° 0 mm 6 mps 757 mmHg 45%
    15:00 +28°C° 0 mm 6 mps 757 mmHg 47%
    16:00 +28°C° 0 mm 6 mps 756 mmHg 49%
    17:00 +27°C° 0 mm 5 mps 756 mmHg 50%
    18:00 +26°C° 0 mm 5 mps 756 mmHg 56%
    19:00 +25°C° 0 mm 5 mps 756 mmHg 63%
    20:00 +25°C° 0 mm 5 mps 756 mmHg 69%
    21:00 +23°C° 0 mm 4 mps 756 mmHg 69%
    22:00 +24°C° 0 mm 3 mps 757 mmHg 70%
    23:00 +23°C° 0 mm 2 mps 757 mmHg 71%

    Tomorrow, 27 May, Monday

    Time Temperature Precipitation Wind Pressure Humidity
    00:00 +23°C° 0 mm 2 mps 757 mmHg 73%
    01:00 +21°C° 0 mm 2 mps 756 mmHg 74%
    02:00 +22°C° 0 mm 1 mps 756 mmHg 76%
    03:00 +22°C° 0 mm 1 mps 756 mmHg 75%
    04:00 +22°C° 0 mm 1 mps 756 mmHg 74%
    05:00 +22°C° 0 mm 1 mps 756 mmHg 73%
    06:00 +23°C° 0 mm 2 mps 756 mmHg 64%
    07:00 +25°C° 0 mm 2 mps 756 mmHg 56%
    08:00 +27°C° 0 mm 2 mps 756 mmHg 48%
    09:00 +28°C° 0 mm 2 mps 756 mmHg 44%
    10:00 +29°C° 0 mm 3 mps 756 mmHg 40%
    11:00 +30°C° 0 mm 3 mps 756 mmHg 36%
    12:00 +32°C° 0 mm 4 mps 756 mmHg 38%
    13:00 +32°C° 0 mm 5 mps 755 mmHg 40%
    14:00 +32°C° 0 mm 6 mps 755 mmHg 41%
    15:00 +30°C° 0 mm 6 mps 755 mmHg 45%
    16:00 +29°C° 0 mm 6 mps 754 mmHg 49%
    17:00 +28°C° 0 mm 6 mps 754 mmHg 53%
    18:00 +28°C° 0 mm 5 mps 755 mmHg 57%
    19:00 +27°C° 0 mm 4 mps 755 mmHg 62%
    20:00 +26°C° 0 mm 3 mps 755 mmHg 66%
    21:00 +25°C° 0 mm 3 mps 755 mmHg 67%
    22:00 +25°C° 0 mm 2 mps 755 mmHg 68%
    23:00 +25°C° 0 mm 2 mps 756 mmHg 69%

    Day after tomorrow, 28 May, Tuesday

    Time Temperature Precipitation Wind Pressure Humidity
    00:00 +24°C° 0 mm 2 mps 755 mmHg 70%
    01:00 +24°C° 0 mm 2 mps 755 mmHg 72%
    02:00 +23°C° 0 mm 2 mps 755 mmHg 74%
    03:00 +23°C° 0 mm 2 mps 755 mmHg 75%
    04:00 +23°C° 0 mm 2 mps 755 mmHg 77%
    05:00 +23°C° 0 mm 2 mps 755 mmHg 79%
    06:00 +24°C° 0 mm 1 mps 755 mmHg 70%
    07:00 +26°C° 0 mm 1 mps 755 mmHg 61%
    08:00 +28°C° 0 mm 1 mps 755 mmHg 53%
    09:00 +29°C° 0 mm 2 mps 755 mmHg 51%
    10:00 +30°C° 0 mm 3 mps 755 mmHg 48%
    11:00 +32°C° 0 mm 5 mps 755 mmHg 46%
    12:00 +32°C° 0 mm 5 mps 755 mmHg 47%
    13:00 +32°C° 0 mm 5 mps 754 mmHg 47%
    14:00 +32°C° 0 mm 5 mps 754 mmHg 48%
    15:00 +32°C° 0 mm 5 mps 754 mmHg 48%
    16:00 +30°C° 0 mm 5 mps 754 mmHg 49%
    17:00 +30°C° 0 mm 5 mps 754 mmHg 49%
    18:00 +29°C° 0 mm 4 mps 754 mmHg 55%
    19:00 +28°C° 0 mm 4 mps 754 mmHg 61%
    20:00 +26°C° 0 mm 3 mps 754 mmHg 67%
    21:00 +26°C° 0 mm 2 mps 755 mmHg 68%
    22:00 +26°C° 0 mm 2 mps 755 mmHg 70%
    23:00 +25°C° 0 mm 1 mps 755 mmHg 71%

    29 May, Wednesday

    Time Temperature Precipitation Wind Pressure Humidity
    00:00 +25°C° 0 mm 1 mps 755 mmHg 72%
    01:00 +25°C° 0 mm 1 mps 754 mmHg 73%
    02:00 +22°C° 0 mm 0 mps 754 mmHg 74%
    03:00 +24°C° 0 mm 1 mps 754 mmHg 74%
    04:00 +24°C° 0 mm 1 mps 754 mmHg 73%
    05:00 +24°C° 0 mm 1 mps 754 mmHg 72%
    06:00 +26°C° 0 mm 1 mps 755 mmHg 66%
    07:00 +27°C° 0 mm 1 mps 755 mmHg 59%
    08:00 +29°C° 0 mm 2 mps 755 mmHg 52%
    09:00 +30°C° 0 mm 3 mps 755 mmHg 50%
    10:00 +31°C° 0 mm 3 mps 755 mmHg 47%
    11:00 +33°C° 0 mm 4 mps 755 mmHg 45%
    12:00 +33°C° 0 mm 4 mps 754 mmHg 45%
    13:00 +33°C° 0 mm 4 mps 754 mmHg 44%
    14:00 +33°C° 0 mm 5 mps 754 mmHg 44%
    15:00 +33°C° 0 mm 5 mps 754 mmHg 44%
    16:00 +33°C° 0 mm 5 mps 754 mmHg 43%
    17:00 +32°C° 0 mm 5 mps 754 mmHg 42%
    18:00 +30°C° 0 mm 4 mps 754 mmHg 48%
    19:00 +29°C° 0 mm 3 mps 754 mmHg 53%
    20:00 +28°C° 0 mm 2 mps 755 mmHg 58%
    21:00 +27°C° 0 mm 2 mps 755 mmHg 60%
    22:00 +27°C° 0 mm 1 mps 755 mmHg 62%
    23:00 +26°C° 0 mm 1 mps 755 mmHg 64%

    30 May, Thursday

    Time Temperature Precipitation Wind Pressure Humidity
    00:00 +26°C° 0 mm 1 mps 755 mmHg 64%
    01:00 +26°C° 0 mm 1 mps 754 mmHg 65%
    02:00 +25°C° 0 mm 2 mps 754 mmHg 65%
    03:00 +25°C° 0 mm 2 mps 754 mmHg 66%
    04:00 +25°C° 0 mm 2 mps 755 mmHg 67%
    05:00 +25°C° 0 mm 2 mps 755 mmHg 68%
    06:00 +26°C° 0 mm 2 mps 755 mmHg 62%
    07:00 +28°C° 0 mm 2 mps 755 mmHg 56%
    08:00 +29°C° 0 mm 3 mps 755 mmHg 50%
    09:00 +30°C° 0 mm 3 mps 755 mmHg 49%
    10:00 +31°C° 0 mm 3 mps 755 mmHg 47%
    11:00 +33°C° 0 mm 3 mps 755 mmHg 45%
    12:00 +33°C° 0 mm 4 mps 755 mmHg 44%
    13:00 +33°C° 0 mm 5 mps 754 mmHg 44%
    14:00 +33°C° 0 mm 6 mps 754 mmHg 44%
    15:00 +32°C° 0 mm 5 mps 754 mmHg 46%
    16:00 +32°C° 0 mm 5 mps 754 mmHg 48%
    17:00 +30°C° 0 mm 4 mps 754 mmHg 49%
    18:00 +29°C° 0 mm 3 mps 755 mmHg 55%
    19:00 +28°C° 0 mm 2 mps 755 mmHg 60%
    20:00 +25°C° 0 mm 0 mps 755 mmHg 65%
    21:00 +26°C° 0 mm 1 mps 755 mmHg 66%
    22:00 +26°C° 0 mm 1 mps 755 mmHg 67%
    23:00 +26°C° 0 mm 2 mps 756 mmHg 67%

    31 May, Friday

    Time Temperature Precipitation Wind Pressure Humidity
    00:00 +25°C° 0 mm 2 mps 755 mmHg 69%
    01:00 +25°C° 0 mm 2 mps 755 mmHg 70%
    02:00 +25°C° 0 mm 2 mps 755 mmHg 71%
    03:00 +25°C° 0 mm 2 mps 755 mmHg 73%
    04:00 +24°C° 0 mm 2 mps 755 mmHg 74%
    05:00 +24°C° 0 mm 2 mps 755 mmHg 75%
    06:00 +25°C° 0 mm 2 mps 755 mmHg 68%
    07:00 +27°C° 0 mm 2 mps 755 mmHg 61%
    08:00 +28°C° 0 mm 3 mps 756 mmHg 54%
    09:00 +29°C° 0 mm 3 mps 755 mmHg 51%
    10:00 +30°C° 0 mm 4 mps 755 mmHg 48%
    11:00 +32°C° 0 mm 4 mps 755 mmHg 45%
    12:00 +32°C° 0 mm 4 mps 755 mmHg 45%
    13:00 +32°C° 0 mm 5 mps 755 mmHg 45%
    14:00 +32°C° 0 mm 5 mps 755 mmHg 45%
    15:00 +30°C° 0 mm 4 mps 755 mmHg 48%
    16:00 +29°C° 0 mm 3 mps 755 mmHg 51%
    17:00 +29°C° 0 mm 2 mps 755 mmHg 53%
    18:00 +28°C° 0 mm 2 mps 755 mmHg 56%
    19:00 +27°C° 0 mm 2 mps 755 mmHg 58%
    20:00 +27°C° 0 mm 2 mps 755 mmHg 61%
    21:00 +26°C° 0 mm 2 mps 755 mmHg 65%
    22:00 +25°C° 0 mm 2 mps 755 mmHg 69%
    23:00 +25°C° 0 mm 1 mps 755 mmHg 74%
    Show more